Fremont, MI

2:25 PM EST on November 20, 2019 (GMT -0500)
Fremont

Weather History for KFFX - July, 2019

Change the Weather History Date:

Tuesday, July 9, 2019

  Actual Average (KMKG) Record (KMKG)
Temperature  
Mean Temperature 75 °F -  
Max Temperature 84 °F 82 °F 94 °F (1897)
Min Temperature 66 °F 61 °F 46 °F (1942)
Cooling Degree Days 10    
Growing Degree Days 25 (Base 50)    
Moisture  
Dew Point 56 °F    
Average Humidity 46    
Maximum Humidity 87    
Minimum Humidity 35    
Precipitation  
Precipitation 0.00 in - - ()
Sea Level Pressure  
Sea Level Pressure 30.01 in    
Wind  
Wind Speed 5 mph (South)    
Max Wind Speed 9 mph    
Max Gust Speed -    
Visibility 10 miles    
Events      
Averages and records for this station are not official NWS values.
T = Trace of Precipitation, MM = Missing Value Source: NWS Daily Summary

Daily Weather History Graph

Daily Weather History Graph

Search for Another Location

Airport or City:

Astronomy

Jul. 09, 2019 Rise Set
Actual Time 6:12 AM EDT 9:26 PM EDT
Civil Twilight 5:36 AM EDT 10:00 PM EDT
Nautical Twilight 4:51 AM EDT 10:46 PM EDT
Astronomical Twilight 3:56 AM EDT 11:41 PM EDT
Moon 2:13 PM EDT (7/9) 1:32 AM EDT (7/9)
Length of Visible Light 16h 24m
Length of Day
15h 13m
First Quarter, 52% of the Moon is Illuminated
Jul 9
First Quarter
Jul 16
Full
Jul 24
Last Quarter
Jul 31
New
Aug 7
First Quarter

Hourly Weather History & Observations

Time (EDT) Temp. Heat Index Dew Point Humidity Pressure Visibility Wind Dir Wind Speed Gust Speed Precip Events Conditions
11:16 AM 76.6 °F - 57.0 °F 51% 30.07 in 10.0 mi SW 9.2 mph - N/A   Clear
11:35 AM 78.1 °F - 56.1 °F 47% 30.07 in 10.0 mi SW 6.9 mph - N/A   Clear
11:36 AM 78.1 °F - 56.1 °F 47% 30.07 in 10.0 mi SSW 8.1 mph - N/A   Clear
11:55 AM 79.0 °F - 56.7 °F 46% 30.07 in 10.0 mi WSW 5.8 mph - N/A   Clear
12:19 PM 79.7 °F - 55.0 °F 43% 30.06 in 10.0 mi SSW 6.9 mph - N/A   Clear
12:37 PM 79.5 °F - 55.2 °F 43% 30.06 in 10.0 mi South 5.8 mph - N/A   Clear
12:55 PM 80.4 °F 80.2 °F 53.8 °F 40% 30.05 in 10.0 mi West 6.9 mph - N/A   Clear
1:15 PM 80.6 °F 80.3 °F 53.4 °F 39% 30.05 in 10.0 mi SW 9.2 mph - N/A   Clear
1:35 PM 82.0 °F - 52.2 °F 35% 30.04 in 10.0 mi SSW 6.9 mph - N/A   Clear
1:58 PM 81.7 °F - 52.2 °F 36% 30.03 in 10.0 mi WSW 8.1 mph - N/A   Clear
2:16 PM 81.5 °F - 51.8 °F 36% 30.03 in 10.0 mi WSW 4.6 mph - N/A   Clear
2:35 PM 81.5 °F - 52.3 °F 36% 30.03 in 10.0 mi SSW 5.8 mph - N/A   Clear
2:36 PM 81.5 °F - 52.5 °F 37% 30.03 in 10.0 mi South 5.8 mph - N/A   Clear
2:55 PM 82.6 °F 81.7 °F 54.3 °F 38% 30.02 in 10.0 mi SSW 4.6 mph - N/A   Clear
3:19 PM 83.3 °F 82.1 °F 53.6 °F 36% 30.02 in 10.0 mi West 3.5 mph - N/A   Clear
3:37 PM 82.9 °F 81.9 °F 54.3 °F 37% 30.02 in 10.0 mi SSW 4.6 mph - N/A   Clear
3:55 PM 83.3 °F 82.2 °F 54.7 °F 37% 30.02 in 10.0 mi ESE 3.5 mph - N/A   Clear
3:56 PM 83.1 °F 82.1 °F 54.7 °F 37% 30.02 in 10.0 mi Calm Calm - N/A   Clear
4:15 PM 82.8 °F 81.9 °F 54.5 °F 38% 30.02 in 10.0 mi SE 9.2 mph - N/A   Scattered Clouds
4:35 PM 83.8 °F 82.4 °F 53.6 °F 35% 30.02 in 10.0 mi South 5.8 mph - N/A   Clear
4:40 PM 84.2 °F 82.8 °F 54.0 °F 35% 30.02 in 10.0 mi SSE 4.6 mph - N/A   Clear
4:58 PM 84.2 °F 82.8 °F 53.8 °F 35% 30.01 in 10.0 mi South 3.5 mph - N/A   Clear
5:16 PM 83.1 °F - 52.7 °F 35% 30.01 in 10.0 mi SSE 5.8 mph - N/A   Clear
5:35 PM 83.5 °F 82.1 °F 53.4 °F 35% 30.00 in 10.0 mi South 3.5 mph - N/A   Clear
5:36 PM 83.5 °F 82.1 °F 53.4 °F 35% 30.00 in 10.0 mi South 3.5 mph - N/A   Clear
5:55 PM 83.3 °F 82.1 °F 53.4 °F 36% 30.00 in 10.0 mi South 3.5 mph - N/A   Clear
5:56 PM 83.3 °F 82.1 °F 53.4 °F 36% 30.00 in 10.0 mi SSE 4.6 mph - N/A   Clear
6:19 PM 82.8 °F 81.7 °F 54.0 °F 37% 30.00 in 10.0 mi South 8.1 mph - N/A   Clear
6:37 PM 82.8 °F 81.6 °F 53.1 °F 36% 30.00 in 10.0 mi SE 4.6 mph - N/A   Clear
6:55 PM 82.9 °F 81.8 °F 53.1 °F 36% 30.00 in 10.0 mi SSW 3.5 mph - N/A   Clear
6:56 PM 83.1 °F 81.9 °F 53.2 °F 36% 30.00 in 10.0 mi SSW 4.6 mph - N/A   Clear
7:15 PM 82.9 °F 81.8 °F 53.8 °F 36% 30.00 in 10.0 mi South 3.5 mph - N/A   Clear
7:16 PM 82.8 °F 81.7 °F 54.0 °F 37% 30.00 in 10.0 mi SSW 3.5 mph - N/A   Clear
7:35 PM 82.0 °F 81.5 °F 55.4 °F 40% 29.99 in 10.0 mi South 3.5 mph - N/A   Clear
7:40 PM 82.4 °F 81.8 °F 55.8 °F 40% 29.99 in 10.0 mi SSE 3.5 mph - N/A   Clear
7:58 PM 81.5 °F 81.0 °F 55.2 °F 40% 29.99 in 10.0 mi Calm Calm - N/A   Clear
8:16 PM 80.6 °F 80.6 °F 56.5 °F 43% 29.99 in 10.0 mi South 4.6 mph - N/A   Clear
8:35 PM 79.2 °F - 59.0 °F 50% 29.99 in 10.0 mi Calm Calm - N/A   Clear
8:36 PM 79.2 °F - 59.0 °F 50% 29.99 in 10.0 mi Calm Calm - N/A   Clear
8:55 PM 77.0 °F - 60.3 °F 56% 29.99 in 10.0 mi Calm Calm - N/A   Clear
8:56 PM 77.0 °F - 60.3 °F 56% 29.99 in 10.0 mi Calm Calm - N/A   Clear
9:19 PM 74.7 °F - 61.0 °F 62% 29.99 in 10.0 mi Calm Calm - N/A   Clear
9:37 PM 72.7 °F - 60.6 °F 66% 29.98 in 10.0 mi Calm Calm - N/A   Clear
9:55 PM 71.6 °F - 59.9 °F 66% 29.99 in 10.0 mi Calm Calm - N/A   Clear
9:56 PM 71.4 °F - 60.1 °F 67% 29.99 in 10.0 mi Calm Calm - N/A   Clear
10:15 PM 69.1 °F - 60.8 °F 75% 29.98 in 10.0 mi SE 3.5 mph - N/A   Clear
10:35 PM 68.2 °F - 60.8 °F 77% 29.98 in 10.0 mi Calm Calm - N/A   Clear
10:58 PM 66.6 °F - 61.5 °F 84% 29.98 in 10.0 mi SE 4.6 mph - N/A   Clear
11:16 PM 66.4 °F - 62.4 °F 87% 29.98 in 10.0 mi ESE 3.5 mph - N/A   Clear
11:35 PM 68.2 °F - 60.6 °F 77% 29.98 in 10.0 mi ESE 4.6 mph - N/A   Clear
11:55 PM 68.9 °F - 59.5 °F 72% 29.97 in 10.0 mi SE 4.6 mph - N/A   Clear